Torna al catalogo

Rassvet-1 1

AttivoScienzaSSO
NORAD 57169·PAYLOAD·🇷🇺 Russia

Lanciato Jun 27, 2023 da Vostochny Cosmodrome

Loading…

Prossimi Passaggi (prossime 24 ore)

TLE

AggiornatoSource: Space-Track

Epoca: Sep 14, 2026, 15:09 UTC

1 57169U 23091D   26257.63125078  .00006495  00000-0  25971-3 0  9998
2 57169  97.5014 319.3906 0010937 141.1048 219.0979 15.25398738177795

Traccia Rassvet-1 1 in tempo reale con AllMySat

Download on the App Store